Dewpoint
37 38 39 39 38 39 38 38 36 30 28 31 32 36 40 43 43 45 46 45 43 42 43 42 45 41 39 39 40 41 42 43 45 47 46 46 48 48
36 36 36 37 38 39 38 37 36 34 31 30 30 32 31 30 41 42 43 43 43 41 42 40 39 39 39 39 40 39 38 38 40 43 46 46 43 41
34 33 30 29 32 36 36 34 32 32 31 28 27 27 26 27 28 35 39 39 39 41 39 38 38 39 39 39 39 38 36 37 37 37 38 43 46 43
26 26 26 23 25 27 28 27 27 27 26 24 25 25 24 26 27 26 26 22 34 39 40 38 39 39 39 38 38 38 37 36 37 38 39 40 41 45
25 25 23 22 22 24 26 27 27 25 24 23 23 24 24 25 24 26 25 27 26 34 39 39 38 39 38 38 38 37 37 38 38 39 39 40 40 41
25 24 23 22 22 23 23 25 25 25 23 22 22 22 23 24 25 25 26 27 26 25 29 33 37 39 39 39 38 38 38 38 38 38 38 38 38 39
23 22 21 22 25 26 25 25 25 24 22 21 21 21 21 22 22 26 25 26 27 29 28 28 29 31 33 36 38 38 38 38 39 39 39 38 38 39
20 19 20 22 23 24 27 29 28 25 22 21 20 19 19 21 22 22 23 23 23 28 27 26 28 28 30 31 35 37 35 35 34 36 38 39 39 38
20 19 19 17 22 23 25 27 26 27 28 27 25 23 22 23 22 21 22 23 23 26 26 24 24 26 29 30 35 34 33 33 34 35 34 36 37 37
22 20 20 21 23 23 22 22 24 25 24 24 27 26 26 25 25 24 26 28 26 27 27 23 23 23 26 28 34 35 35 34 33 33 34 34 35 37
22 22 21 20 23 26 25 25 25 24 25 26 28 30 30 32 31 30 27 25 22 23 25 23 22 22 23 25 28 33 34 35 35 35 34 34 35 36
22 21 22 23 28 28 25 23 22 21 24 24 24 23 24 25 26 28 27 26 25 19 22 24 22 23 20 23 26 27 27 32 34 35 35 35 35 34
20 20 22 23 25 25 24 24 23 23 25 23 22 22 22 23 24 25 26 27 26 25 25 25 23 22 23 23 22 24 24 27 29 31 34 36 36 35
21 21 23 26 23 24 25 27 25 25 22 22 23 23 24 25 27 30 29 28 29 27 27 27 28 26 25 24 22 24 23 25 25 25 27 32 35 36
21 23 24 22 24 25 26 26 25 26 24 23 24 25 26 27 28 29 29 31 30 30 30 30 31 30 29 26 23 24 24 25 23 25 31 32 28 26
20 22 22 22 22 24 22 23 24 23 23 22 22 25 27 27 27 28 28 28 29 28 30 31 32 32 29 29 28 26 26 25 26 29 32 32 32 28
20 19 19 18 18 20 19 20 21 22 21 22 22 23 24 25 25 27 28 29 24 23 24 27 30 30 30 28 27 27 27 24 25 25 28 26 32 32
18 16 16 16 16 16 17 18 19 21 21 21 22 22 23 23 24 26 26 23 22 25 22 24 24 28 29 29 31 28 25 24 24 28 26 29 28 28
15 15 14 14 15 16 16 17 17 21 21 20 21 21 22 23 24 23 20 21 21 25 28 27 28 28 25 22 26 29 28 26 26 20 21 23 28 29
14 14 13 14 15 15 15 16 17 19 18 18 18 19 21 22 18 21 20 16 22 24 24 23 21 21 19 19 19 15 27 22 23 21 20 25 26 29
12 14 14 15 15 14 13 14 15 15 14 15 16 17 17 21 20 18 18 18 17 22 21 20 21 21 22 21 21 17 17 25 21 18 20 19 21 27
4 11 14 15 13 13 13 12 13 12 11 12 12 14 16 19 19 19 19 19 16 15 18 19 24 25 20 21 19 16 15 13 21 24 24 22 18 18
0 5 7 10 12 11 14 12 10 7 8 9 10 10 12 14 16 19 16 17 19 14 15 19 22 22 22 20 18 20 11 10 18 17 16 23 24 25
Lifted_Index
4 4 4 3 3 3 2 2 3 3 3 3 3 3 3 3 4 4 4 5 6 6 6 6 6 7 8 9 9 10 9 8 7 8 8 9 9 10
4 4 4 4 3 3 3 3 3 4 4 4 3 3 4 4 4 4 4 5 5 6 6 6 6 7 7 8 9 10 10 10 9 9 9 10 10 10
5 5 5 5 5 4 4 4 5 5 5 5 5 4 4 4 4 4 4 4 5 5 5 6 6 7 7 8 9 10 11 11 11 11 11 11 11 11
5 6 6 6 6 6 6 6 6 6 6 6 6 5 5 5 5 5 5 5 5 5 5 5 5 6 7 8 9 10 11 12 12 12 12 12 12 12
6 6 6 7 7 7 7 6 6 6 7 7 7 7 6 6 6 6 6 6 5 5 5 5 5 6 6 7 8 9 10 11 12 13 13 13 13 13
6 6 7 7 7 7 7 7 6 6 7 7 8 8 7 7 7 7 7 6 6 6 6 6 6 6 6 7 7 8 9 10 11 12 13 14 14 14
7 7 7 8 8 7 7 7 6 6 7 7 8 9 9 8 8 8 8 7 7 7 6 6 6 6 7 7 7 7 8 8 10 11 12 13 13 14
8 8 9 9 8 8 7 7 6 6 6 7 8 9 10 10 10 9 9 8 8 8 7 7 7 7 7 7 7 7 7 8 9 10 11 12 12 13
8 9 9 9 8 8 7 7 7 7 7 8 9 10 10 11 11 11 10 10 9 9 8 8 7 7 8 8 8 8 8 8 8 9 10 11 11 12
9 9 9 8 8 7 7 7 7 7 7 8 9 10 11 11 11 11 11 11 10 10 10 9 9 9 9 9 9 9 8 9 9 9 10 10 11 12
9 9 9 8 8 7 7 7 7 7 8 9 10 11 11 11 11 11 11 11 11 11 11 10 10 10 10 10 9 9 9 9 9 9 10 10 11 11
10 10 10 9 8 8 8 8 8 8 9 10 11 12 12 12 12 12 12 12 11 11 11 11 11 10 10 10 10 10 10 10 10 10 10 10 10 10
10 10 10 9 9 8 8 9 9 9 10 11 12 12 13 12 12 12 12 12 11 11 11 11 10 10 10 9 9 9 9 9 10 10 10 10 10 10
11 11 11 10 10 9 9 10 10 11 11 12 13 13 13 12 12 11 11 11 11 11 10 10 10 9 9 9 9 9 9 9 9 9 9 9 10 10
12 12 12 11 11 11 11 11 11 12 13 13 13 13 12 12 12 11 11 11 11 11 10 10 9 8 8 8 8 8 8 8 8 8 9 9 9 9
12 12 12 12 12 12 12 12 13 13 13 13 13 13 12 12 12 11 11 11 11 11 11 10 9 8 8 8 8 8 8 8 8 8 8 9 9 9
12 12 12 12 13 13 13 13 14 14 14 13 13 13 12 12 11 11 11 11 11 11 11 10 9 8 8 7 7 7 8 8 8 8 8 8 9 8
12 12 12 13 13 14 14 14 14 14 14 14 14 13 12 12 11 11 11 11 11 10 10 10 10 9 8 7 7 7 7 8 8 8 8 8 8 8
12 12 12 13 14 14 14 14 14 15 15 15 14 13 13 12 11 11 11 10 10 10 10 10 10 9 8 7 6 6 7 7 8 8 8 8 8 8
12 12 13 14 14 15 15 15 15 15 15 14 14 14 13 12 12 11 11 10 10 10 10 9 10 9 9 8 7 6 7 7 7 7 7 7 7 8
13 13 13 14 14 15 15 15 15 15 15 14 14 14 13 13 12 12 11 11 10 10 9 10 10 10 9 8 7 7 7 7 7 7 7 7 7 7
13 13 14 14 14 14 15 15 15 15 15 14 14 14 13 13 13 13 12 11 11 10 10 10 11 11 10 9 8 8 8 8 8 8 8 8 7 7
13 13 14 14 14 14 14 15 15 15 15 15 14 14 13 13 13 13 12 12 11 11 10 11 11 11 10 10 9 9 9 9 8 8 8 8 8 8